Flag for Uruguay Weather past 2 weeks in Maldonado, Uruguay

Now
63 °F

Passing clouds.


Feels Like: 63 °F
Forecast: N/A
Wind: 7 mph from Northeast

Location: Capitan Corbeta

Current Time: Jul 29, 2014 at 6:19:30 PM

Latest Report: Jul 29, 2014 at 6:00 PM


Visibility: N/A

Pressure: 30.07 "Hg

Humidity: 83%

Dew point: 57 °F

Location of MaldonadoLocation

Historic Weather in Maldonado — Graph

°F

Maldonado temperature yesterday

Maximum temperature yesterday: 55 °F (at 3:00 PM)
Minimum temperature yesterday: 37 °F (at 12:00 AM)
Average temperature yesterday: 45 °F

Past Weeks' High & Low Weather Summary

 TemperatureHumidityPressure
High70 °F (Jul 21, 1:00 PM)100% (Jul 19, 10:00 PM)30.42 "Hg (Jul 19, 10:00 PM)
Low30 °F (Jul 27, 6:00 AM)41% (Jul 27, 2:00 PM)29.77 "Hg (Jul 22, 1:00 PM)
Average52 °F76%30.11 "Hg
* Reported Jul 14 5:00 PM — Jul 29 5:00 PM, Maldonado, Weather by CustomWeather, © 2014

Note: Actual official high and low records may vary slightly from our data, if they occured in-between our weather recording intervals... More about our weather records

Advertising

Maldonado weather history for previous 24 hours

 ConditionsComfort  
Time TempWeatherWind HumidityBarometerVisibility
5:00 PM
Jul 29
63 °FPassing clouds.12 mph77%30.07 "HgN/A
4:00 PM63 °FPartly sunny.7 mph73%30.07 "HgN/A
3:00 PM63 °FPartly sunny.10 mph77%30.07 "HgN/A
2:00 PM63 °FPartly sunny.10 mph73%30.09 "HgN/A
1:00 PM61 °FBroken clouds.12 mph72%30.12 "HgN/A
12:00 PM59 °FPartly sunny.14 mph77%30.18 "HgN/A
11:00 AM57 °FBroken clouds.15 mph77%30.18 "HgN/A
10:00 AM54 °FBroken clouds.9 mph88%30.18 "HgN/A
9:00 AM54 °FLight rain. Overcast.14 mph88%30.18 "HgN/A
8:00 AM54 °FOvercast.16 mph82%30.18 "HgN/A
7:00 AM52 °FSunny.17 mph82%30.18 "Hg10 mi
6:00 AM50 °FClear.14 mph76%30.21 "Hg10 mi
5:00 AM50 °FClear.12 mph71%30.21 "Hg10 mi
4:00 AM50 °FClear.12 mph76%30.27 "Hg10 mi
3:00 AM50 °FClear.14 mph82%30.27 "Hg10 mi
2:00 AM48 °FClear.12 mph76%30.27 "Hg10 mi
1:00 AM48 °FClear.9 mph71%30.27 "Hg10 mi
12:00 AM46 °FClear.10 mph76%30.27 "Hg10 mi
11:00 PM
Jul 28
46 °FClear.15 mph82%30.27 "Hg10 mi
10:00 PM46 °FClear.14 mph82%30.27 "Hg10 mi
9:00 PM46 °FClear.16 mph76%30.30 "Hg10 mi
8:00 PM48 °FClear.17 mph71%30.30 "Hg10 mi
7:00 PM50 °FClear.13 mph67%30.30 "Hg10 mi
6:00 PM52 °FClear.14 mph58%30.30 "Hg10 mi
Weather by CustomWeather, © 2014

See weather overviewHow to use our weather pages